Flag for Germany Weather past 2 weeks in Wittenberg, Saxony-Anhalt, Germany

Now
41 °F

Fog.


Feels Like: 36 °F
Forecast: 48 / 60 °F
Wind: 8 mph from Southeast

Location: Holzdorf

Current Time: Oct 25, 2014 at 8:24:26 AM

Latest Report: Oct 25, 2014 at 7:20 AM


Visibility: 0 mi

Pressure: 30.12 "Hg

Humidity: 93%

Dew point: 39 °F

Location of WittenbergLocation

Historic Weather in Wittenberg — Graph

°F

Wittenberg temperature yesterday

Maximum temperature yesterday: 50 °F (at 12:20 AM)
Minimum temperature yesterday: 43 °F (at 8:50 PM)
Average temperature yesterday: 47 °F

Past Weeks' High & Low Weather Summary

 TemperatureHumidityPressure
High73 °F (Oct 19, 3:20 PM)100% (Oct 10, 8:20 AM)30.27 "Hg (Oct 10, 8:20 AM)
Low41 °F (Oct 25, 7:03 AM)49% (Oct 15, 2:20 PM)29.47 "Hg (Oct 21, 8:45 PM)
Average55 °F89%29.91 "Hg
* Reported Oct 10 7:20 AM — Oct 25 7:20 AM, Wittenberg, Weather by CustomWeather, © 2014

Note: Actual official high and low records may vary slightly from our data, if they occured in-between our weather recording intervals... More about our weather records

Advertising

Wittenberg weather history for previous 24 hours

 ConditionsComfort  
Time TempWeatherWind HumidityBarometerVisibility
7:20 AM
Oct 25
41 °FFog.8 mph93%30.12 "Hg1 mi
7:03 AM41 °FFog.7 mph100%30.12 "Hg1 mi
6:20 AM43 °FFog.7 mph93%30.12 "Hg2 mi
5:20 AM43 °FFog.7 mph93%30.12 "Hg2 mi
4:20 AM43 °FFog.8 mph93%30.15 "Hg2 mi
3:20 AM43 °FFog.10 mph100%30.15 "Hg2 mi
2:20 AM43 °FFog.9 mph100%30.15 "Hg2 mi
1:20 AM45 °FFog.12 mph93%30.18 "Hg2 mi
12:20 AM45 °FFog.10 mph93%30.18 "Hg2 mi
11:20 PM
Oct 24
43 °FFog.10 mph100%30.18 "Hg2 mi
10:20 PM43 °FFog.6 mph93%30.18 "Hg3 mi
9:20 PM43 °FPassing clouds.7 mph93%30.18 "HgN/A
8:50 PM43 °FPassing clouds.6 mph93%30.18 "HgN/A
8:20 PM45 °FPassing clouds.9 mph87%30.18 "HgN/A
7:20 PM46 °FPassing clouds.8 mph87%30.21 "HgN/A
6:20 PM46 °FPartly sunny.9 mph87%30.21 "HgN/A
5:20 PM46 °FPartly sunny.8 mph87%30.21 "HgN/A
4:20 PM48 °FPartly sunny.9 mph87%30.21 "HgN/A
3:20 PM48 °FPartly sunny.9 mph87%30.21 "HgN/A
2:20 PM50 °FPartly sunny.9 mph82%30.24 "HgN/A
1:20 PM50 °FPartly sunny.9 mph88%30.24 "HgN/A
12:20 PM50 °FPartly sunny.9 mph88%30.27 "HgN/A
12:00 PM50 °FPartly sunny.8 mph88%30.27 "Hg6 mi
11:20 AM48 °FPartly sunny.8 mph94%30.27 "Hg4 mi
10:20 AM48 °FPartly sunny.7 mph94%30.27 "Hg5 mi
9:20 AM48 °FScattered clouds.7 mph87%30.24 "Hg5 mi
8:20 AM46 °FFog.5 mph93%30.24 "Hg3 mi
Weather by CustomWeather, © 2014

See weather overviewHow to use our weather pages